This is the latest recevied weather packets stored in our database for station/object OE6JUE. If no packets are shown the sender has not sent any weather packets the latest 10 day(s).
| Time | Temp. | Humidity | Pressure | Rain* | Wind** | Luminosity | Snow |
|---|---|---|---|---|---|---|---|
| 1777486539 | 7.78° C | 61% | 1023 hPa | 0 mm | - | - | - |
| 1777486239 | 8.33° C | 61% | 1022.9 hPa | 0 mm | - | - | - |
| 1777485939 | 8.89° C | 60% | 1022.8 hPa | 0 mm | - | - | - |
| 1777485640 | 8.89° C | 58% | 1022.7 hPa | - | - | - | - |
| 1777485339 | 8.89° C | 58% | 1022.7 hPa | 0 mm | - | - | - |
| 1777485039 | 9.44° C | 55% | 1022.6 hPa | 0 mm | - | - | - |
| 1777484739 | 10° C | 56% | 1022.7 hPa | 0 mm | - | - | - |
| 1777484439 | 10° C | 55% | 1022.7 hPa | 0 mm | - | - | - |
| 1777484140 | 10° C | 55% | 1022.7 hPa | 0 mm | - | - | - |
| 1777483839 | 10.56° C | 54% | 1022.6 hPa | 0 mm | - | - | - |
| 1777483539 | 11.11° C | 51% | 1022.5 hPa | 0 mm | - | - | - |
| 1777483239 | 11.11° C | 48% | 1022.4 hPa | 0 mm | - | - | - |
| 1777482939 | 11.11° C | 48% | 1022.4 hPa | 0 mm | - | - | - |
| 1777482639 | 11.67° C | 46% | 1022.5 hPa | 0 mm | - | - | - |
| 1777482339 | 11.67° C | 45% | 1022.5 hPa | 0 mm | - | - | - |
| 1777482039 | 11.67° C | 44% | 1022.4 hPa | - | - | - | - |
| 1777481739 | 11.67° C | 44% | 1022.4 hPa | 0 mm | - | - | - |
| 1777481439 | 12.22° C | 45% | 1022.4 hPa | 0 mm | - | - | - |
| 1777481139 | 12.22° C | 45% | 1022.4 hPa | 0 mm | - | - | - |
| 1777480839 | 12.78° C | 41% | 1022.3 hPa | 0 mm | - | - | - |
| 1777480539 | 12.78° C | 41% | 1022.3 hPa | 0 mm | - | - | - |
| 1777480239 | 12.78° C | 41% | 1022.5 hPa | 0 mm | - | - | - |
| 1777479939 | 13.33° C | 40% | 1022.4 hPa | 0 mm | - | - | - |
| 1777479639 | 14.44° C | 40% | 1022.5 hPa | 0 mm | - | - | - |
| 1777479339 | 14.44° C | 40% | 1022.5 hPa | 0 mm | - | - | - |
* Rain latest hour (hover to see other rain measurements)
** Current wind speed in m/s (hover to see current wind gust speed)